,,Stat6,,Stat2,,Stat8,,Stat9,,Stat10,,Wind1,,Wind1,
time,status,PA1M_AVG,status,PR1M_SUM,status,RH1M_AVG,status,SR1M_AVG,status,TA1M_AVG,status,W1dAve1m,status,W1sAve1m,
2004-08-06, 00:00:00,VALID,918.311,VALID,0,VALID,100,VALID,-0.0169808,VALID,17.0644,VALID,123,VALID,1.29992,
2004-08-06, 00:01:00,VALID,918.304,VALID,0,VALID,100,VALID,-0.0339617,VALID,17.158,VALID,126,VALID,1.40725,
2004-08-06, 00:02:00,VALID,918.3,VALID,0,VALID,100,VALID,-0.0169808,VALID,17.2322,VALID,125,VALID,1.58222,
2004-08-06, 00:03:00,VALID,918.301,VALID,0,VALID,100,VALID,-0.0169808,VALID,17.3258,VALID,117,VALID,1.67728,
2004-08-06, 00:04:00,VALID,918.282,VALID,0,VALID,100,VALID,0,VALID,17.4521,VALID,123,VALID,1.59821,
2004-08-06, 00:05:00,VALID,918.266,VALID,0,VALID,100,VALID,-0.0339617,VALID,17.5162,VALID,120,VALID,1.58021,
2004-08-06, 00:06:00,VALID,918.252,VALID,0,VALID,99.9728,VALID,0,VALID,17.5255,VALID,126,VALID,1.51349,
2004-08-06, 00:07:00,VALID,918.259,VALID,0,VALID,99.5959,VALID,-0.0169808,VALID,17.5294,VALID,128,VALID,1.49665,
2004-08-06, 00:08:00,VALID,918.237,VALID,0,VALID,99.3759,VALID,-0.0169808,VALID,17.5038,VALID,129,VALID,1.55774,
2004-08-06, 00:09:00,VALID,918.243,VALID,0,VALID,99.3644,VALID,0,VALID,17.4775,VALID,128,VALID,1.48302,
2004-08-06, 00:10:00,VALID,918.235,VALID,0,VALID,99.4827,VALID,-0.0169808,VALID,17.4715,VALID,124,VALID,1.42149,
2004-08-06, 00:11:00,VALID,918.236,VALID,0,VALID,99.353,VALID,0.0169808,VALID,17.4484,VALID,128,VALID,1.37946,
2004-08-06, 00:12:00,VALID,918.233,VALID,0,VALID,99.1788,VALID,-0.0169808,VALID,17.4063,VALID,130,VALID,1.41588,
2004-08-06, 00:13:00,VALID,918.224,VALID,0,VALID,99.0974,VALID,-0.0339617,VALID,17.3742,VALID,135,VALID,1.3949,
2004-08-06, 00:14:00,VALID,918.218,VALID,0,VALID,99.1292,VALID,-0.0169808,VALID,17.3353,VALID,136,VALID,1.39583,
2004-08-06, 00:15:00,VALID,918.208,VALID,0,VALID,99.2055,VALID,-0.0169808,VALID,17.3122,VALID,135,VALID,1.23624,
2004-08-06, 00:16:00,VALID,918.189,VALID,0,VALID,99.3746,VALID,-0.0339617,VALID,17.3092,VALID,133,VALID,1.50345,
2004-08-06, 00:17:00,VALID,918.162,VALID,0,VALID,99.4001,VALID,-0.0169808,VALID,17.3385,VALID,133,VALID,1.29978,
2004-08-06, 00:18:00,VALID,918.146,VALID,0,VALID,99.1521,VALID,-0.0509425,VALID,17.3551,VALID,132,VALID,1.43527,
2004-08-06, 00:19:00,VALID,918.129,VALID,0,VALID,99.1432,VALID,-0.0169808,VALID,17.3777,VALID,137,VALID,1.48896,
2004-08-06, 00:20:00,VALID,918.11,VALID,0,VALID,98.9804,VALID,-0.0339617,VALID,17.4259,VALID,134,VALID,1.28702,
2004-08-06, 00:21:00,VALID,918.095,VALID,0,VALID,98.7465,VALID,-0.0339617,VALID,17.4549,VALID,135,VALID,1.18341,
2004-08-06, 00:22:00,VALID,918.092,VALID,0,VALID,98.6066,VALID,-0.0339617,VALID,17.4906,VALID,125,VALID,0.927912,
2004-08-06, 00:23:00,VALID,918.08,VALID,0,VALID,98.4082,VALID,-0.0169808,VALID,17.4867,VALID,132,VALID,1.1131,
2004-08-06, 00:24:00,VALID,918.075,VALID,0,VALID,98.3332,VALID,-0.0169808,VALID,17.5033,VALID,134,VALID,1.32679,
2004-08-06, 00:25:00,VALID,918.052,VALID,0,VALID,98.2365,VALID,-0.0169808,VALID,17.5197,VALID,133,VALID,1.22275,
2004-08-06, 00:26:00,VALID,918.058,VALID,0,VALID,98.0814,VALID,0,VALID,17.516,VALID,135,VALID,1.00614,
2004-08-06, 00:27:00,VALID,918.04,VALID,0,VALID,97.9326,VALID,0,VALID,17.5065,VALID,133,VALID,0.973028,
2004-08-06, 00:28:00,VALID,918.031,VALID,0,VALID,97.7165,VALID,-0.0339617,VALID,17.4837,VALID,128,VALID,1.06731,
2004-08-06, 00:29:00,VALID,918.021,VALID,0,VALID,97.6389,VALID,0,VALID,17.4515,VALID,135,VALID,1.1377,
2004-08-06, 00:30:00,VALID,918.014,VALID,0,VALID,97.6452,VALID,-0.0339617,VALID,17.4289,VALID,131,VALID,1.27326,
2004-08-06, 00:31:00,VALID,918.023,VALID,0,VALID,97.3401,VALID,-0.0679233,VALID,17.4067,VALID,131,VALID,1.07376,
2004-08-06, 00:32:00,VALID,918.02,VALID,0,VALID,97.1608,VALID,-0.0679233,VALID,17.3615,VALID,123,VALID,0.92359,
2004-08-06, 00:33:00,VALID,918.011,VALID,0,VALID,97.0539,VALID,-0.0339617,VALID,17.3097,VALID,122,VALID,0.763494,
2004-08-06, 00:34:00,VALID,918.018,VALID,0,VALID,97.251,VALID,-0.0509425,VALID,17.2875,VALID,110,VALID,1.15606,
2004-08-06, 00:35:00,VALID,918.001,VALID,0,VALID,97.5715,VALID,-0.0169808,VALID,17.2707,VALID,112,VALID,1.15183,
2004-08-06, 00:36:00,VALID,918.011,VALID,0,VALID,97.4011,VALID,-0.0169808,VALID,17.2806,VALID,115,VALID,1.31321,
2004-08-06, 00:37:00,VALID,918.01,VALID,0,VALID,96.9077,VALID,-0.0339617,VALID,17.2808,VALID,115,VALID,1.07376,
2004-08-06, 00:38:00,VALID,918.003,VALID,0,VALID,96.6686,VALID,-0.0679233,VALID,17.2585,VALID,112,VALID,1.19732,
2004-08-06, 00:39:00,VALID,917.991,VALID,0,VALID,96.8162,VALID,-0.0169808,VALID,17.2615,VALID,101,VALID,1.04632,
2004-08-06, 00:40:00,VALID,917.968,VALID,0,VALID,96.5936,VALID,-0.0169808,VALID,17.2677,VALID,113,VALID,0.911458,
2004-08-06, 00:41:00,VALID,917.952,VALID,0,VALID,96.4741,VALID,-0.0169808,VALID,17.2484,VALID,124,VALID,1.00176,
2004-08-06, 00:42:01,VALID,917.934,VALID,0,VALID,96.3126,VALID,-0.0339617,VALID,17.2161,VALID,128,VALID,0.948401,
2004-08-06, 00:43:00,VALID,917.917,VALID,0,VALID,96.3546,VALID,-0.0509425,VALID,17.161,VALID,138,VALID,0.851563,
2004-08-06, 00:44:00,VALID,917.903,VALID,0,VALID,96.3635,VALID,0,VALID,17.1257,VALID,147,VALID,0.714757,
2004-08-06, 00:45:00,VALID,917.888,VALID,0,VALID,96.9064,VALID,-0.0169808,VALID,17.0904,VALID,137,VALID,1.246,
2004-08-06, 00:46:00,VALID,917.864,VALID,0,VALID,97.3197,VALID,-0.0339617,VALID,17.0904,VALID,140,VALID,1.29023,
2004-08-06, 00:47:00,VALID,917.843,VALID,0,VALID,97.7686,VALID,-0.0509425,VALID,17.1001,VALID,139,VALID,1.15867,
2004-08-06, 00:48:00,VALID,917.828,VALID,0,VALID,98.0776,VALID,-0.0339617,VALID,17.1193,VALID,136,VALID,1.14881,
2004-08-06, 00:49:00,VALID,917.829,VALID,0,VALID,98.4438,VALID,0,VALID,17.1743,VALID,134,VALID,1.25781,
2004-08-06, 00:50:01,VALID,917.821,VALID,0,VALID,98.2861,VALID,-0.0339617,VALID,17.187,VALID,131,VALID,1.3184,
2004-08-06, 00:51:00,VALID,917.822,VALID,0,VALID,98.3993,VALID,-0.0509425,VALID,17.1907,VALID,132,VALID,1.55636,
2004-08-06, 00:52:01,VALID,917.822,VALID,0,VALID,98.88,VALID,-0.0679233,VALID,17.2552,VALID,125,VALID,1.37591,
2004-08-06, 00:53:00,VALID,917.831,VALID,0,VALID,98.5964,VALID,-0.0339617,VALID,17.2944,VALID,95,VALID,1.00705,
2004-08-06, 00:54:00,VALID,917.83,VALID,0,VALID,98.2327,VALID,-0.0169808,VALID,17.278,VALID,102,VALID,1.1008,
2004-08-06, 00:55:00,VALID,917.844,VALID,0,VALID,98.1412,VALID,-0.0339617,VALID,17.275,VALID,91,VALID,0.712798,
2004-08-06, 00:56:00,VALID,917.874,VALID,0,VALID,97.9682,VALID,-0.0169808,VALID,17.2417,VALID,94,VALID,0.916466,
2004-08-06, 00:57:00,VALID,917.876,VALID,0,VALID,97.8334,VALID,-0.0169808,VALID,17.2163,VALID,97,VALID,0.889803,
2004-08-06, 00:58:00,VALID,917.887,VALID,0,VALID,97.9021,VALID,-0.0169808,VALID,17.1612,VALID,100,VALID,1.10684,
2004-08-06, 00:59:00,VALID,917.891,VALID,0,VALID,98.1157,VALID,-0.0169808,VALID,17.1225,VALID,99,VALID,1.07213,
2004-08-06, 01:00:00,VALID,917.894,VALID,0,VALID,98.2671,VALID,-0.101885,VALID,17.1201,VALID,104,VALID,0.90625,
2004-08-06, 01:01:00,VALID,917.894,VALID,0,VALID,98.3586,VALID,-0.0509425,VALID,17.0906,VALID,110,VALID,1.13354,
2004-08-06, 01:02:00,VALID,917.894,VALID,0,VALID,98.3675,VALID,-0.0339617,VALID,17.0745,VALID,110,VALID,1.1895,
2004-08-06, 01:03:00,VALID,917.878,VALID,0,VALID,98.5583,VALID,-0.0679233,VALID,17.1066,VALID,98,VALID,1.27674,
2004-08-06, 01:04:01,VALID,917.861,VALID,0,VALID,98.4247,VALID,-0.0849042,VALID,17.1363,VALID,104,VALID,1.19436,
2004-08-06, 01:05:00,VALID,917.864,VALID,0,VALID,98.3243,VALID,-0.0509425,VALID,17.152,VALID,113,VALID,1.28036,
2004-08-06, 01:06:00,VALID,917.846,VALID,0,VALID,98.0661,VALID,-0.0339617,VALID,17.1651,VALID,89,VALID,0.933866,
2004-08-06, 01:07:00,VALID,917.834,VALID,0,VALID,96.6941,VALID,-0.0679233,VALID,17.0782,VALID,49,VALID,0.621094,
2004-08-06, 01:08:01,VALID,917.82,VALID,0,VALID,95.5357,VALID,-0.0849042,VALID,16.8654,VALID,45,VALID,0.967634,
2004-08-06, 01:09:00,VALID,917.814,VALID,0,VALID,96.071,VALID,-0.0339617,VALID,16.7,VALID,51,VALID,0.87173,
2004-08-06, 01:10:00,VALID,917.811,VALID,0,VALID,97.7482,VALID,-0.0169808,VALID,16.7066,VALID,74,VALID,0.797619,
2004-08-06, 01:11:01,VALID,917.798,VALID,0,VALID,98.0572,VALID,-0.0509425,VALID,16.7228,VALID,96,VALID,0.753729,
2004-08-06, 01:12:01,VALID,917.792,VALID,0,VALID,98.426,VALID,-0.0169808,VALID,16.7292,VALID,126,VALID,0.939757,
2004-08-06, 01:13:00,VALID,917.78,VALID,0,VALID,98.4006,VALID,0,VALID,16.7099,VALID,122,VALID,0.687137,
2004-08-06, 01:14:00,VALID,917.763,VALID,0,VALID,98.3637,VALID,-0.0169808,VALID,16.6679,VALID,116,VALID,0.825763,
2004-08-06, 01:15:01,VALID,917.752,VALID,0,VALID,98.9525,VALID,-0.0339617,VALID,16.684,VALID,118,VALID,1.06399,
2004-08-06, 01:16:00,VALID,917.743,VALID,0,VALID,98.8456,VALID,-0.0169808,VALID,16.7073,VALID,119,VALID,0.555398,
2004-08-06, 01:17:00,VALID,917.73,VALID,0,VALID,97.9695,VALID,-0.0509425,VALID,16.6038,VALID,119,VALID,0.0363372,
2004-08-06, 01:18:01,VALID,917.724,VALID,0,VALID,97.1709,VALID,-0.0169808,VALID,16.4455,VALID,107,VALID,0.45827,
2004-08-06, 01:19:00,VALID,917.722,VALID,0,VALID,97.8589,VALID,-0.0339617,VALID,16.4068,VALID,86,VALID,0.457118,
2004-08-06, 01:20:01,VALID,917.725,VALID,0,VALID,98.0204,VALID,-0.0679233,VALID,16.3973,VALID,90,VALID,0.353087,
2004-08-06, 01:21:00,VALID,917.718,VALID,0,VALID,98.5544,VALID,-0.0339617,VALID,16.3936,VALID,119,VALID,0.787919,
2004-08-06, 01:22:00,VALID,917.709,VALID,0,VALID,98.6371,VALID,-0.0339617,VALID,16.4199,VALID,107,VALID,0.869606,
2004-08-06, 01:23:01,VALID,917.723,VALID,0,VALID,96.7259,VALID,-0.0679233,VALID,16.2233,VALID,75,VALID,0.783668,
2004-08-06, 01:24:00,VALID,917.749,VALID,0,VALID,98.3713,VALID,-0.0509425,VALID,16.1977,VALID,75,VALID,0.976926,
2004-08-06, 01:25:00,VALID,917.776,VALID,0,VALID,99.6188,VALID,-0.0509425,VALID,16.3878,VALID,80,VALID,1.03468,
2004-08-06, 01:26:00,VALID,917.79,VALID,0,VALID,97.9784,VALID,-0.0509425,VALID,16.3745,VALID,76,VALID,0.544588,
2004-08-06, 01:27:01,VALID,917.802,VALID,0,VALID,96.5631,VALID,-0.0339617,VALID,16.2204,VALID,71,VALID,0.569222,
2004-08-06, 01:28:01,VALID,917.806,VALID,0,VALID,96.7984,VALID,-0.0679233,VALID,16.1168,VALID,67,VALID,0.528525,
2004-08-06, 01:29:01,VALID,917.813,VALID,0,VALID,97.3324,VALID,-0.0339617,VALID,16.0882,VALID,67,VALID,0.307465,
2004-08-06, 01:30:01,VALID,917.794,VALID,0,VALID,97.7393,VALID,-0.0509425,VALID,16.075,VALID,67,VALID,0.257068,
2004-08-06, 01:31:00,VALID,917.789,VALID,0,VALID,98.07,VALID,-0.0509425,VALID,16.075,VALID,67,VALID,0.158537,
2004-08-06, 01:32:00,VALID,917.77,VALID,0,VALID,98.1958,VALID,-0.0679233,VALID,16.0755,VALID,67,VALID,0.333576,
2004-08-06, 01:33:00,VALID,917.763,VALID,0,VALID,98.0967,VALID,-0.0169808,VALID,16.0327,VALID,67,VALID,0.416969,
2004-08-06, 01:34:00,VALID,917.744,VALID,0,VALID,97.663,VALID,-0.0339617,VALID,15.9494,VALID,65,VALID,0.590402,
2004-08-06, 01:35:00,VALID,917.737,VALID,0,VALID,97.5639,VALID,-0.0509425,VALID,15.8397,VALID,61,VALID,0.90767,
2004-08-06, 01:36:01,VALID,917.724,VALID,0,VALID,99.2218,VALID,-0.0339617,VALID,15.9234,VALID,61,VALID,0.973704,
2004-08-06, 01:37:00,VALID,917.704,VALID,0,VALID,100,VALID,-0.0339617,VALID,16.1585,VALID,74,VALID,0.928052,
2004-08-06, 01:38:01,VALID,917.7,VALID,0,VALID,100,VALID,-0.0509425,VALID,16.34,VALID,92,VALID,0.911754,
2004-08-06, 01:39:00,VALID,917.686,VALID,0,VALID,99.2437,VALID,-0.135847,VALID,16.4147,VALID,101,VALID,0.722384,
2004-08-06, 01:40:00,VALID,917.674,VALID,0,VALID,97.8067,VALID,-0.135847,VALID,16.3501,VALID,135,VALID,0.946801,
2004-08-06, 01:41:00,VALID,917.679,VALID,0,VALID,97.7889,VALID,-0.118866,VALID,16.2886,VALID,137,VALID,1.04148,
2004-08-06, 01:42:00,VALID,917.671,VALID,0,VALID,98.1615,VALID,-0.118866,VALID,16.2628,VALID,136,VALID,1.0734,
2004-08-06, 01:43:00,VALID,917.682,VALID,0,VALID,98.3726,VALID,-0.118866,VALID,16.2953,VALID,137,VALID,0.952592,
2004-08-06, 01:44:00,VALID,917.707,VALID,0,VALID,98.5621,VALID,-0.101885,VALID,16.3082,VALID,136,VALID,0.923651,
2004-08-06, 01:45:01,VALID,917.723,VALID,0,VALID,98.6206,VALID,-0.118866,VALID,16.3404,VALID,135,VALID,0.843555,
2004-08-06, 01:46:00,VALID,917.727,VALID,0,VALID,98.501,VALID,-0.118866,VALID,16.3667,VALID,137,VALID,0.786776,
2004-08-06, 01:47:00,VALID,917.733,VALID,0,VALID,98.5481,VALID,-0.135847,VALID,16.3923,VALID,138,VALID,0.94186,
2004-08-06, 01:48:01,VALID,917.73,VALID,0,VALID,98.5761,VALID,-0.135847,VALID,16.4375,VALID,138,VALID,0.865972,
2004-08-06, 01:49:01,VALID,917.738,VALID,0,VALID,98.6142,VALID,-0.135847,VALID,16.4857,VALID,137,VALID,0.95484,
2004-08-06, 01:50:00,VALID,917.72,VALID,0,VALID,98.7045,VALID,-0.135847,VALID,16.5439,VALID,136,VALID,0.911806,
2004-08-06, 01:51:00,VALID,917.707,VALID,0,VALID,98.4018,VALID,-0.101885,VALID,16.5724,VALID,130,VALID,0.61843,
2004-08-06, 01:52:00,VALID,917.688,VALID,0,VALID,98.075,VALID,-0.118866,VALID,16.5859,VALID,129,VALID,0.41915,
2004-08-06, 01:53:01,VALID,917.667,VALID,0,VALID,97.6147,VALID,-0.0849042,VALID,16.5498,VALID,129,VALID,0.358073,
2004-08-06, 01:54:00,VALID,917.643,VALID,0,VALID,97.6185,VALID,0,VALID,16.5102,VALID,129,VALID,0.333452,
2004-08-06, 01:55:00,VALID,917.622,VALID,0,VALID,97.7495,VALID,-0.0169808,VALID,16.4685,VALID,129,VALID,0.398056,
2004-08-06, 01:56:00,VALID,917.608,VALID,0,VALID,98.1615,VALID,-0.0169808,VALID,16.459,VALID,129,VALID,0.507449,
2004-08-06, 01:57:01,VALID,917.608,VALID,0,VALID,97.8741,VALID,-0.0509425,VALID,16.4033,VALID,127,VALID,0.443555,
2004-08-06, 01:58:00,VALID,917.609,VALID,0,VALID,97.9428,VALID,-0.0339617,VALID,16.3654,VALID,104,VALID,0.685501,
2004-08-06, 01:59:00,VALID,917.608,VALID,0,VALID,97.6491,VALID,-0.0679233,VALID,16.3301,VALID,100,VALID,0.798209,
2004-08-06, 02:00:01,VALID,917.606,VALID,0,VALID,98.4044,VALID,-0.0679233,VALID,16.391,VALID,100,VALID,0.855556,
2004-08-06, 02:01:00,VALID,917.591,VALID,0,VALID,98.0674,VALID,-0.0679233,VALID,16.5173,VALID,100,VALID,0.830124,
2004-08-06, 02:02:01,VALID,917.583,VALID,0,VALID,96.5224,VALID,-0.0679233,VALID,16.5492,VALID,104,VALID,0.580124,
2004-08-06, 02:03:01,VALID,917.589,VALID,0,VALID,95.6959,VALID,-0.0339617,VALID,16.4655,VALID,144,VALID,0.833333,
2004-08-06, 02:04:00,VALID,917.586,VALID,0,VALID,96.38,VALID,-0.0509425,VALID,16.4106,VALID,145,VALID,0.983854,
2004-08-06, 02:05:00,VALID,917.589,VALID,0,VALID,96.8746,VALID,-0.0509425,VALID,16.3719,VALID,135,VALID,1.13225,
2004-08-06, 02:06:00,VALID,917.581,VALID,0,VALID,97.2243,VALID,-0.0339617,VALID,16.3457,VALID,133,VALID,1.05283,
2004-08-06, 02:07:00,VALID,917.575,VALID,0,VALID,97.1849,VALID,-0.0509425,VALID,16.3076,VALID,130,VALID,1.08555,
2004-08-06, 02:08:01,VALID,917.55,VALID,0,VALID,97.7203,VALID,-0.0509425,VALID,16.2686,VALID,130,VALID,1.1029,
2004-08-06, 02:09:00,VALID,917.535,VALID,0,VALID,97.9848,VALID,-0.101885,VALID,16.2944,VALID,131,VALID,0.903773,
2004-08-06, 02:10:00,VALID,917.514,VALID,0,VALID,98.0954,VALID,-0.0679233,VALID,16.3108,VALID,132,VALID,0.843369,
2004-08-06, 02:11:00,VALID,917.523,VALID,0,VALID,98.3586,VALID,-0.0509425,VALID,16.3269,VALID,140,VALID,0.994368,
2004-08-06, 02:12:00,VALID,917.521,VALID,0,VALID,98.4921,VALID,-0.0169808,VALID,16.3588,VALID,145,VALID,1.01989,
2004-08-06, 02:13:00,VALID,917.526,VALID,0,VALID,98.3306,VALID,-0.0169808,VALID,16.3463,VALID,147,VALID,0.86319,
2004-08-06, 02:14:00,VALID,917.528,VALID,0,VALID,98.4362,VALID,-0.0339617,VALID,16.3168,VALID,140,VALID,1.11198,
2004-08-06, 02:15:00,VALID,917.535,VALID,0,VALID,98.7274,VALID,-0.0849042,VALID,16.3172,VALID,145,VALID,1.11665,
2004-08-06, 02:16:00,VALID,917.532,VALID,0,VALID,98.9258,VALID,-0.0509425,VALID,16.3205,VALID,142,VALID,1.11791,
2004-08-06, 02:17:00,VALID,917.532,VALID,0,VALID,99.175,VALID,-0.0339617,VALID,16.3203,VALID,139,VALID,1.18262,
2004-08-06, 02:18:01,VALID,917.517,VALID,0,VALID,99.395,VALID,0,VALID,16.3426,VALID,136,VALID,1.16406,
2004-08-06, 02:19:00,VALID,917.507,VALID,0,VALID,99.25,VALID,0,VALID,16.3428,VALID,126,VALID,1.14117,
2004-08-06, 02:20:01,VALID,917.509,VALID,0,VALID,99.0275,VALID,0,VALID,16.313,VALID,123,VALID,0.867569,
2004-08-06, 02:21:00,VALID,917.502,VALID,0,VALID,98.9105,VALID,-0.0339617,VALID,16.3071,VALID,116,VALID,1.0322,
2004-08-06, 02:22:01,VALID,917.501,VALID,0,VALID,99.0605,VALID,0,VALID,16.3261,VALID,120,VALID,1.25648,
2004-08-06, 02:23:01,VALID,917.499,VALID,0,VALID,99.0504,VALID,-0.0509425,VALID,16.3947,VALID,124,VALID,1.24063,
2004-08-06, 02:24:00,VALID,917.486,VALID,0,VALID,98.8444,VALID,0,VALID,16.4461,VALID,127,VALID,1.28516,
2004-08-06, 02:25:01,VALID,917.488,VALID,0,VALID,98.6485,VALID,-0.0339617,VALID,16.4777,VALID,132,VALID,1.03477,
2004-08-06, 02:26:00,VALID,917.482,VALID,0,VALID,98.2467,VALID,-0.0169808,VALID,16.5108,VALID,114,VALID,0.96689,
2004-08-06, 02:27:01,VALID,917.478,VALID,0,VALID,97.9492,VALID,-0.0509425,VALID,16.4846,VALID,107,VALID,0.868641,
2004-08-06, 02:28:01,VALID,917.464,VALID,0,VALID,98.3128,VALID,0,VALID,16.4975,VALID,107,VALID,0.896391,
2004-08-06, 02:29:01,VALID,917.451,VALID,0,VALID,98.3586,VALID,-0.0849042,VALID,16.5399,VALID,103,VALID,1.133,
2004-08-06, 02:30:01,VALID,917.464,VALID,0,VALID,98.365,VALID,-0.0169808,VALID,16.5943,VALID,99,VALID,1.0574,
2004-08-06, 02:31:00,VALID,917.45,VALID,0,VALID,98.0839,VALID,-0.0849042,VALID,16.6528,VALID,102,VALID,0.850497,
2004-08-06, 02:32:01,VALID,917.448,VALID,0,VALID,97.555,VALID,-0.0679233,VALID,16.6754,VALID,109,VALID,0.963889,
2004-08-06, 02:33:01,VALID,917.443,VALID,0,VALID,97.204,VALID,-0.0339617,VALID,16.6724,VALID,123,VALID,1.04042,
2004-08-06, 02:34:00,VALID,917.439,VALID,0,VALID,96.8556,VALID,-0.0339617,VALID,16.6173,VALID,135,VALID,1.17262,
2004-08-06, 02:35:01,VALID,917.421,VALID,0,VALID,96.9306,VALID,-0.0339617,VALID,16.5463,VALID,134,VALID,1.40605,
2004-08-06, 02:36:01,VALID,917.411,VALID,0,VALID,97.4367,VALID,-0.0849042,VALID,16.4788,VALID,132,VALID,1.15193,
2004-08-06, 02:37:01,VALID,917.405,VALID,0,VALID,97.6363,VALID,-0.0339617,VALID,16.3814,VALID,124,VALID,0.828835,
2004-08-06, 02:38:01,VALID,917.416,VALID,0,VALID,98.0369,VALID,-0.0509425,VALID,16.2944,VALID,122,VALID,1.00586,
2004-08-06, 02:39:01,VALID,917.408,VALID,0,VALID,98.4387,VALID,-0.0849042,VALID,16.2368,VALID,129,VALID,0.863554,
2004-08-06, 02:40:01,VALID,917.41,VALID,0,VALID,98.9931,VALID,-0.0509425,VALID,16.2043,VALID,133,VALID,1.31136,
2004-08-06, 02:41:01,VALID,917.413,VALID,0,VALID,99.2831,VALID,-0.0169808,VALID,16.1847,VALID,132,VALID,1.29592,
2004-08-06, 02:42:01,VALID,917.407,VALID,0,VALID,99.2945,VALID,-0.0679233,VALID,16.1426,VALID,136,VALID,1.10529,
2004-08-06, 02:43:01,VALID,917.412,VALID,0,VALID,99.3161,VALID,-0.0849042,VALID,16.0847,VALID,134,VALID,1.00814,
2004-08-06, 02:44:00,VALID,917.404,VALID,0,VALID,99.3416,VALID,-0.101885,VALID,16.0234,VALID,125,VALID,0.853237,
2004-08-06, 02:45:01,VALID,917.406,VALID,0,VALID,99.5285,VALID,-0.0509425,VALID,15.9847,VALID,124,VALID,0.994606,
2004-08-06, 02:46:01,VALID,917.404,VALID,0,VALID,99.6836,VALID,-0.0679233,VALID,15.9912,VALID,124,VALID,1.21294,
2004-08-06, 02:47:01,VALID,917.401,VALID,0,VALID,99.7294,VALID,-0.0679233,VALID,16.0079,VALID,123,VALID,0.996548,
2004-08-06, 02:48:01,VALID,917.395,VALID,0,VALID,99.5348,VALID,-0.0849042,VALID,16.0109,VALID,127,VALID,0.854992,
2004-08-06, 02:49:01,VALID,917.398,VALID,0,VALID,99.3301,VALID,-0.0849042,VALID,16.0142,VALID,131,VALID,0.591704,
2004-08-06, 02:50:01,VALID,917.386,VALID,0,VALID,99.1496,VALID,-0.0679233,VALID,16.0077,VALID,118,VALID,0.881392,
2004-08-06, 02:51:01,VALID,917.398,VALID,0,VALID,99.2932,VALID,-0.0339617,VALID,16.0333,VALID,114,VALID,1.23601,
2004-08-06, 02:52:01,VALID,917.385,VALID,0,VALID,99.2119,VALID,-0.0339617,VALID,16.0688,VALID,114,VALID,1.02871,
2004-08-06, 02:53:01,VALID,917.387,VALID,0,VALID,99.0466,VALID,-0.0509425,VALID,16.1243,VALID,120,VALID,1.16033,
2004-08-06, 02:54:01,VALID,917.396,VALID,0,VALID,98.7325,VALID,-0.0679233,VALID,16.14,VALID,121,VALID,1.05507,
2004-08-06, 02:55:01,VALID,917.403,VALID,0,VALID,98.4502,VALID,-0.0679233,VALID,16.1531,VALID,125,VALID,1.15643,
2004-08-06, 02:56:01,VALID,917.408,VALID,0,VALID,98.2454,VALID,-0.101885,VALID,16.166,VALID,125,VALID,1.13672,
2004-08-06, 02:57:01,VALID,917.399,VALID,0,VALID,98.0483,VALID,-0.0679233,VALID,16.1852,VALID,117,VALID,1.11886,
2004-08-06, 02:58:01,VALID,917.415,VALID,0,VALID,97.8601,VALID,-0.0509425,VALID,16.2176,VALID,119,VALID,1.19211,
2004-08-06, 02:59:01,VALID,917.416,VALID,0,VALID,97.4265,VALID,-0.0679233,VALID,16.2237,VALID,124,VALID,1.24143,
2004-08-06, 03:00:01,VALID,917.433,VALID,0,VALID,97.1913,VALID,-0.0679233,VALID,16.1979,VALID,129,VALID,1.4641,
2004-08-06, 03:01:01,VALID,917.42,VALID,0,VALID,97.2523,VALID,-0.0169808,VALID,16.1787,VALID,125,VALID,1.26683,
2004-08-06, 03:02:01,VALID,917.432,VALID,0,VALID,97.4024,VALID,-0.0849042,VALID,16.1819,VALID,115,VALID,1.11998,
2004-08-06, 03:03:01,VALID,917.439,VALID,0,VALID,97.396,VALID,-0.0849042,VALID,16.1561,VALID,116,VALID,1.21431,
2004-08-06, 03:04:01,VALID,917.456,VALID,0,VALID,97.6274,VALID,-0.0679233,VALID,16.1303,VALID,111,VALID,1.4217,
2004-08-06, 03:05:01,VALID,917.463,VALID,0,VALID,97.7978,VALID,-0.0679233,VALID,16.1335,VALID,110,VALID,1.28817,
2004-08-06, 03:06:01,VALID,917.485,VALID,0,VALID,97.9644,VALID,-0.0849042,VALID,16.1339,VALID,111,VALID,1.17795,
2004-08-06, 03:07:01,VALID,917.486,VALID,0,VALID,98.0267,VALID,-0.0679233,VALID,16.1499,VALID,109,VALID,1.12234,
2004-08-06, 03:08:01,VALID,917.481,VALID,0,VALID,97.8678,VALID,-0.0169808,VALID,16.191,VALID,107,VALID,1.20694,
2004-08-06, 03:09:01,VALID,917.459,VALID,0,VALID,97.616,VALID,0.0339617,VALID,16.2418,VALID,106,VALID,1.34089,
2004-08-06, 03:10:01,VALID,917.464,VALID,0,VALID,97.1913,VALID,0.0169808,VALID,16.3001,VALID,104,VALID,1.39658,
2004-08-06, 03:11:01,VALID,917.461,VALID,0,VALID,96.6915,VALID,0,VALID,16.3547,VALID,115,VALID,1.35813,
2004-08-06, 03:12:01,VALID,917.469,VALID,0,VALID,96.4894,VALID,0,VALID,16.4229,VALID,107,VALID,1.38118,
2004-08-06, 03:13:00,VALID,917.476,VALID,0,VALID,95.9705,VALID,0.0339617,VALID,16.4842,VALID,99,VALID,0.765104,
2004-08-06, 03:14:00,VALID,917.476,VALID,0,VALID,95.7544,VALID,0.0339617,VALID,16.5001,VALID,98,VALID,0.989281,
2004-08-06, 03:15:00,VALID,917.471,VALID,0,VALID,95.7734,VALID,0.0169808,VALID,16.5163,VALID,112,VALID,1.44212,
2004-08-06, 03:16:00,VALID,917.47,VALID,0,VALID,95.7849,VALID,0.0169808,VALID,16.552,VALID,116,VALID,1.39793,
2004-08-06, 03:17:00,VALID,917.462,VALID,0,VALID,95.2317,VALID,0.0509425,VALID,16.581,VALID,120,VALID,1.35861,
2004-08-06, 03:18:00,VALID,917.464,VALID,0,VALID,95.0245,VALID,0,VALID,16.5743,VALID,111,VALID,1.24419,
2004-08-06, 03:19:00,VALID,917.483,VALID,0,VALID,94.985,VALID,0,VALID,16.5621,VALID,98,VALID,1.02344,
2004-08-06, 03:20:00,VALID,917.502,VALID,0,VALID,95.294,VALID,0,VALID,16.5034,VALID,87,VALID,0.9875,
2004-08-06, 03:21:00,VALID,917.53,VALID,0,VALID,95.7925,VALID,0,VALID,16.488,VALID,110,VALID,1.12246,
2004-08-06, 03:22:00,VALID,917.544,VALID,0,VALID,95.7111,VALID,0,VALID,16.4483,VALID,112,VALID,1.01505,
2004-08-06, 03:23:00,VALID,917.562,VALID,0,VALID,95.9693,VALID,0.0169808,VALID,16.4296,VALID,112,VALID,1.18767,
2004-08-06, 03:24:00,VALID,917.57,VALID,0,VALID,96.3164,VALID,0.0169808,VALID,16.4229,VALID,105,VALID,1.1981,
2004-08-06, 03:25:00,VALID,917.567,VALID,0,VALID,96.3851,VALID,0,VALID,16.439,VALID,112,VALID,1.46715,
2004-08-06, 03:26:00,VALID,917.549,VALID,0,VALID,96.0557,VALID,0.0169808,VALID,16.4195,VALID,120,VALID,1.24829,
2004-08-06, 03:27:00,VALID,917.545,VALID,0,VALID,96.4067,VALID,0,VALID,16.4132,VALID,116,VALID,1.24037,
2004-08-06, 03:28:00,VALID,917.55,VALID,0,VALID,96.4754,VALID,0.0169808,VALID,16.4358,VALID,118,VALID,1.02017,
2004-08-06, 03:29:00,VALID,917.564,VALID,0,VALID,96.3253,VALID,0.0169808,VALID,16.4388,VALID,119,VALID,1.1195,
2004-08-06, 03:30:00,VALID,917.571,VALID,0,VALID,96.4118,VALID,0.0339617,VALID,16.4358,VALID,122,VALID,1.14063,
2004-08-06, 03:31:00,VALID,917.593,VALID,0,VALID,96.4906,VALID,0.0849042,VALID,16.4358,VALID,122,VALID,0.964753,